Simultaneous Nadir Overpasses (SNOs) Predictions

Prediction of SNOs between GOES-16 and METOP-B Satellite Orbit:

Table of predicted SNOs for the next 14.0 days since TLE Epoch: 2/24/2024
Index Date Time (GOES-16) GOES-16 Lat,Lon METOP-B Lat,Lon Distance(km) Time Diff (sec)
1 02/24/2024 14:29:33 0.04, -75.22 0.14, -75.71 55.49 80
2 02/27/2024 02:27:56 -0.05, -75.21 -0.10, -75.33 13.69 80
3 02/29/2024 14:23:31 0.05, -75.26 -0.06, -74.93 38.30 80
4 03/02/2024 02:45:13 -0.05, -75.25 -0.99, -79.54 487.89 80
5 03/03/2024 02:21:54 -0.04, -75.26 0.13, -74.55 81.18 80
6 03/04/2024 14:43:28 0.04, -75.30 0.88, -79.13 436.32 80
7 03/05/2024 14:20:09 0.04, -75.31 -0.24, -74.15 133.02 80
8 03/07/2024 02:41:50 -0.04, -75.31 -0.80, -78.76 392.50 80
9 03/08/2024 02:18:32 -0.04, -75.32 0.33, -73.77 177.14 80
